Zurück zum Katalog

STARLINK-34169

AktivKommunikationVLEO
NORAD 63999·PAYLOAD·🇺🇸 United States

Gestartet May 14, 2025 von Cape Canaveral Space Force Station

Loading…

Nächste Überflüge (nächste 24 Stunden)

TLE

AktuellSource: CelesTrak SupGP

Epoche: Sep 15, 2026, 03:38 UTC

1 63999C 25101F   26258.15187500  .00039911  00000+0  14453-2 0  2584
2 63999  43.0036   7.8131 0001284 267.1029  69.5709 15.27565830    15

Verfolge STARLINK-34169 in Echtzeit mit AllMySat

Download on the App Store